| time (UTC) | temp C | wind direction | speed KPH | gust KPH | rain 1hr cm | rain 24hr cm | rain mn cm | humidity % | barometer mb |
| 20260506133919 | 10 | 64 | 4.8 | 9.7 | 0.00 | 0.00 | 0.00 | 54 | 1014.4 |
| 20260506133020 | 10 | 90 | 4.8 | 6.4 | 0.00 | 0.00 | 0.00 | 52 | 1014.5 |
| 20260506132119 | 11 | 148 | 3.2 | 6.4 | 0.00 | 0.00 | 0.00 | 51 | 1014.4 |
| 20260506131219 | 11 | 136 | 3.2 | 6.4 | 0.00 | 0.00 | 0.00 | 51 | 1014.6 |
| 20260506125419 | 12 | 170 | 3.2 | 6.4 | 0.00 | 0.00 | 0.00 | 49 | 1014.4 |
| 20260506124519 | 11 | 166 | 4.8 | 6.4 | 0.00 | 0.00 | 0.00 | 49 | 1014.5 |
| 20260506123619 | 11 | 171 | 4.8 | 6.4 | 0.00 | 0.00 | 0.00 | 52 | 1014.7 |
| 20260506122719 | 12 | 165 | 3.2 | 6.4 | 0.00 | 0.00 | 0.00 | 51 | 1014.3 |
| 20260506121819 | 11 | 203 | 3.2 | 6.4 | 0.00 | 0.00 | 0.00 | 52 | 1014.4 |
| 20260506120919 | 10 | 195 | 3.2 | 6.4 | 0.00 | 0.00 | 0.00 | 52 | 1014.7 |
| 20260506120021 | 10 | 191 | 3.2 | 6.4 | 0.00 | 0.00 | 0.00 | 50 | 1014.7 |
| 20260506115119 | 12 | 350 | 3.2 | 6.4 | 0.00 | 0.00 | 0.00 | 48 | 1014.8 |
| 20260506114219 | 12 | 82 | 4.8 | 6.4 | 0.00 | 0.00 | 0.00 | 50 | 1014.8 |
| 20260506113319 | 11 | 141 | 4.8 | 9.7 | 0.00 | 0.00 | 0.00 | 51 | 1015.0 |
| 20260506112419 | 11 | 183 | 6.4 | 11.3 | 0.00 | 0.00 | 0.00 | 52 | 1014.8 |
| 20260506111520 | 11 | 164 | 4.8 | 9.7 | 0.00 | 0.00 | 0.00 | 51 | 1014.9 |
| 20260506110620 | 11 | 157 | 4.8 | 6.4 | 0.00 | 0.00 | 0.00 | 52 | 1015.3 |
| 20260506105719 | 11 | 197 | 4.8 | 9.7 | 0.00 | 0.00 | 0.00 | 51 | 1015.3 |
| 20260506104819 | 11 | 167 | 3.2 | 9.7 | 0.00 | 0.00 | 0.00 | 51 | 1015.0 |
| 20260506103920 | 11 | 156 | 6.4 | 11.3 | 0.00 | 0.00 | 0.00 | 49 | 1015.4 |
| 20260506103019 | 10 | 182 | 6.4 | 9.7 | 0.00 | 0.00 | 0.00 | 53 | 1015.1 |
| 20260506102119 | 11 | 171 | 3.2 | 6.4 | 0.00 | 0.00 | 0.00 | 52 | 1015.4 |
| 20260506101219 | 10 | 188 | 4.8 | 6.4 | 0.00 | 0.00 | 0.00 | 54 | 1015.4 |
| 20260506100320 | 9 | 184 | 6.4 | 11.3 | 0.00 | 0.00 | 0.00 | 56 | 1015.5 |
| 20260506094520 | 10 | 185 | 4.8 | 11.3 | 0.00 | 0.00 | 0.00 | 53 | 1015.5 |
| 20260506093622 | 9 | 188 | 6.4 | 11.3 | 0.00 | 0.00 | 0.00 | 54 | 1015.6 |
| 20260506092720 | 10 | 182 | 4.8 | 6.4 | 0.00 | 0.00 | 0.00 | 53 | 1015.6 |
| 20260506091820 | 9 | 183 | 6.4 | 9.7 | 0.00 | 0.00 | 0.00 | 54 | 1015.6 |
| 20260506090020 | 8 | 182 | 4.8 | 6.4 | 0.00 | 0.00 | 0.00 | 60 | 1015.9 |
| 20260506084220 | 7 | 181 | 4.8 | 9.7 | 0.00 | 0.00 | 0.00 | 60 | 1015.8 |
| 20260506083319 | 7 | 173 | 3.2 | 6.4 | 0.00 | 0.00 | 0.00 | 62 | 1015.9 |
| 20260506082420 | 7 | 177 | 4.8 | 6.4 | 0.00 | 0.00 | 0.00 | 64 | 1016.0 |
| 20260506081521 | 7 | 171 | 4.8 | 9.7 | 0.00 | 0.00 | 0.00 | 63 | 1016.2 |
| 20260506080620 | 7 | 178 | 4.8 | 6.4 | 0.00 | 0.00 | 0.00 | 67 | 1016.0 |
| 20260506073020 | 6 | 68 | 1.6 | 3.2 | 0.00 | 0.00 | 0.00 | 73 | 1016.4 |
| 20260506072119 | 6 | 68 | 1.6 | 3.2 | 0.00 | 0.00 | 0.00 | 75 | 1016.4 |
| 20260506071219 | 5 | 68 | 1.6 | 3.2 | 0.00 | 0.00 | 0.00 | 77 | 1016.1 |
| 20260506061819 | 4 | 68 | 0.0 | 3.2 | 0.00 | 0.00 | 0.00 | 84 | 1016.0 |
| 20260506044823 | 2 | 68 | 1.6 | 3.2 | 0.00 | 0.00 | 0.00 | 90 | 1016.0 |
| 20260506043023 | 2 | 68 | 0.0 | 3.2 | 0.00 | 0.00 | 0.00 | 90 | 1016.1 |
| 20260506041219 | 2 | 0 | 0.0 | 0.0 | 0.00 | 0.00 | 0.00 | 90 | 1016.2 |
| 20260506040320 | 2 | 0 | 0.0 | 0.0 | 0.00 | 0.00 | 0.00 | 90 | 1015.9 |
| 20260506035420 | 2 | 0 | 0.0 | 0.0 | 0.00 | 0.00 | 0.00 | 90 | 1016.0 |
| 20260506033620 | 2 | 0 | 0.0 | 0.0 | 0.00 | 0.00 | 0.00 | 90 | 1016.0 |
| 20260506031820 | 2 | 0 | 0.0 | 0.0 | 0.00 | 0.00 | 0.00 | 89 | 1016.2 |
| 20260506030920 | 3 | 0 | 0.0 | 0.0 | 0.00 | 0.00 | 0.00 | 88 | 1016.3 |
| 20260506030020 | 3 | 0 | 0.0 | 0.0 | 0.00 | 0.00 | 0.00 | 88 | 1016.2 |
| 20260506025120 | 3 | 0 | 0.0 | 0.0 | 0.00 | 0.00 | 0.00 | 87 | 1016.3 |
| 20260506024220 | 3 | 0 | 0.0 | 0.0 | 0.00 | 0.00 | 0.00 | 86 | 1016.4 |
| 20260506023320 | 3 | 0 | 0.0 | 0.0 | 0.00 | 0.00 | 0.00 | 86 | 1016.4 |
| 20260506022420 | 3 | 68 | 0.0 | 3.2 | 0.00 | 0.00 | 0.00 | 84 | 1016.4 |
| 20260506021520 | 3 | 68 | 0.0 | 3.2 | 0.00 | 0.00 | 0.00 | 83 | 1016.3 |
| 20260506015720 | 3 | 0 | 0.0 | 0.0 | 0.00 | 0.00 | 0.00 | 84 | 1016.3 |
| 20260506014820 | 3 | 0 | 0.0 | 0.0 | 0.00 | 0.00 | 0.00 | 83 | 1016.4 |
| 20260506013920 | 3 | 68 | 1.6 | 3.2 | 0.00 | 0.00 | 0.00 | 83 | 1016.5 |
| 20260506013020 | 3 | 68 | 0.0 | 3.2 | 0.00 | 0.00 | 0.00 | 84 | 1016.4 |
| 20260506012120 | 3 | 0 | 0.0 | 0.0 | 0.00 | 0.00 | 0.00 | 84 | 1016.4 |
| 20260506011220 | 3 | 0 | 0.0 | 0.0 | 0.00 | 0.00 | 0.00 | 84 | 1016.5 |
| 20260506010320 | 3 | 0 | 0.0 | 0.0 | 0.00 | 0.00 | 0.00 | 84 | 1016.5 |
| 20260506005420 | 3 | 0 | 0.0 | 0.0 | 0.00 | 0.00 | 0.00 | 85 | 1016.5 |
| 20260506003620 | 3 | 0 | 0.0 | 0.0 | 0.00 | 0.00 | 0.00 | 86 | 1016.7 |
| 20260506002720 | 3 | 0 | 0.0 | 0.0 | 0.00 | 0.00 | 0.00 | 86 | 1016.8 |
| 20260506001820 | 3 | 0 | 0.0 | 0.0 | 0.00 | 0.00 | 0.00 | 86 | 1016.6 |
| 20260506000920 | 3 | 0 | 0.0 | 0.0 | 0.00 | 0.00 | 0.00 | 85 | 1016.4 |
| 20260506000020 | 3 | 0 | 0.0 | 0.0 | 0.00 | 0.00 | 0.00 | 82 | 1016.6 |
| 20260505235120 | 4 | 0 | 0.0 | 0.0 | 0.00 | 0.00 | 0.00 | 80 | 1016.7 |
| 20260505234222 | 4 | 68 | 0.0 | 3.2 | 0.00 | 0.00 | 0.00 | 80 | 1016.4 |
| 20260505232420 | 4 | 68 | 0.0 | 3.2 | 0.00 | 0.00 | 0.00 | 80 | 1016.7 |
| 20260505231520 | 4 | 68 | 1.6 | 3.2 | 0.00 | 0.00 | 0.00 | 81 | 1016.7 |
| 20260505230621 | 4 | 68 | 0.0 | 3.2 | 0.00 | 0.00 | 0.00 | 81 | 1016.8 |
| 20260505225720 | 4 | 0 | 0.0 | 0.0 | 0.00 | 0.00 | 0.00 | 80 | 1017.1 |
| 20260505224820 | 5 | 0 | 0.0 | 0.0 | 0.00 | 0.00 | 0.00 | 78 | 1016.8 |
| 20260505223920 | 5 | 0 | 0.0 | 0.0 | 0.00 | 0.00 | 0.00 | 78 | 1016.9 |
| 20260505223020 | 5 | 68 | 0.0 | 3.2 | 0.00 | 0.00 | 0.00 | 78 | 1017.1 |
| 20260505222120 | 5 | 68 | 1.6 | 3.2 | 0.00 | 0.00 | 0.00 | 77 | 1016.8 |
| 20260505221220 | 5 | 68 | 0.0 | 3.2 | 0.00 | 0.00 | 0.00 | 77 | 1016.9 |
| 20260505220320 | 5 | 68 | 0.0 | 3.2 | 0.00 | 0.00 | 0.00 | 77 | 1017.0 |
| 20260505215420 | 5 | 68 | 0.0 | 3.2 | 0.00 | 0.00 | 0.00 | 76 | 1017.0 |
| 20260505213620 | 5 | 68 | 0.0 | 3.2 | 0.00 | 0.00 | 0.00 | 76 | 1016.9 |
| 20260505212720 | 5 | 68 | 0.0 | 3.2 | 0.00 | 0.00 | 0.00 | 75 | 1016.9 |
| 20260505210920 | 5 | 68 | 1.6 | 3.2 | 0.00 | 0.00 | 0.00 | 75 | 1016.8 |
| 20260505210020 | 5 | 68 | 3.2 | 3.2 | 0.00 | 0.00 | 0.00 | 74 | 1016.9 |
| 20260505205120 | 5 | 60 | 3.2 | 6.4 | 0.00 | 0.00 | 0.00 | 74 | 1016.8 |
| 20260505204220 | 5 | 169 | 3.2 | 6.4 | 0.00 | 0.00 | 0.00 | 73 | 1016.9 |
| 20260505203320 | 5 | 196 | 3.2 | 6.4 | 0.00 | 0.00 | 0.00 | 72 | 1016.8 |
| 20260505201520 | 6 | 168 | 3.2 | 6.4 | 0.00 | 0.00 | 0.00 | 72 | 1016.8 |
| 20260505195720 | 6 | 188 | 4.8 | 6.4 | 0.00 | 0.00 | 0.00 | 71 | 1016.6 |
| 20260505194819 | 6 | 170 | 4.8 | 6.4 | 0.00 | 0.00 | 0.00 | 72 | 1016.6 |
| 20260505193919 | 6 | 187 | 3.2 | 6.4 | 0.00 | 0.00 | 0.00 | 71 | 1016.6 |
| 20260505193020 | 6 | 148 | 4.8 | 6.4 | 0.00 | 0.00 | 0.00 | 71 | 1016.4 |
| 20260505192120 | 6 | 172 | 4.8 | 9.7 | 0.00 | 0.00 | 0.00 | 70 | 1016.4 |
| 20260505191220 | 6 | 155 | 6.4 | 11.3 | 0.00 | 0.00 | 0.00 | 72 | 1016.4 |
| 20260505190320 | 6 | 171 | 6.4 | 11.3 | 0.00 | 0.00 | 0.00 | 71 | 1016.2 |
| 20260505185421 | 6 | 250 | 4.8 | 6.4 | 0.00 | 0.00 | 0.00 | 72 | 1016.1 |
| 20260505184520 | 6 | 218 | 6.4 | 11.3 | 0.00 | 0.00 | 0.00 | 74 | 1016.3 |
| 20260505183619 | 7 | 154 | 4.8 | 9.7 | 0.00 | 0.00 | 0.00 | 73 | 1016.3 |
| 20260505182720 | 7 | 185 | 4.8 | 9.7 | 0.00 | 0.00 | 0.00 | 73 | 1016.3 |
| 20260505181820 | 7 | 161 | 4.8 | 9.7 | 0.00 | 0.00 | 0.00 | 72 | 1016.2 |
| 20260505180920 | 7 | 321 | 6.4 | 11.3 | 0.00 | 0.00 | 0.00 | 72 | 1016.2 |
| 20260505180020 | 7 | 34 | 6.4 | 11.3 | 0.00 | 0.00 | 0.00 | 71 | 1016.2 |
| 20260505175120 | 7 | 145 | 6.4 | 11.3 | 0.00 | 0.00 | 0.00 | 71 | 1016.1 |
| 20260505174220 | 7 | 146 | 6.4 | 9.7 | 0.00 | 0.00 | 0.00 | 69 | 1016.0 |
| 20260505172419 | 7 | 16 | 6.4 | 9.7 | 0.00 | 0.00 | 0.00 | 70 | 1016.2 |
| 20260505171520 | 7 | 186 | 6.4 | 6.4 | 0.00 | 0.00 | 0.00 | 70 | 1016.3 |
| 20260505165720 | 8 | 159 | 4.8 | 6.4 | 0.00 | 0.00 | 0.00 | 72 | 1015.8 |
| 20260505164820 | 8 | 94 | 4.8 | 9.7 | 0.00 | 0.00 | 0.00 | 71 | 1016.2 |
| 20260505163920 | 8 | 160 | 6.4 | 12.9 | 0.00 | 0.00 | 0.00 | 70 | 1016.0 |
| 20260505163020 | 8 | 8 | 6.4 | 9.7 | 0.00 | 0.00 | 0.00 | 71 | 1016.1 |
| 20260505161220 | 8 | 16 | 8.0 | 11.3 | 0.00 | 0.00 | 0.00 | 71 | 1015.8 |
| 20260505152720 | 8 | 346 | 6.4 | 6.4 | 0.00 | 0.00 | 0.00 | 69 | 1015.6 |
| 20260505151820 | 8 | 163 | 8.0 | 9.7 | 0.00 | 0.00 | 0.00 | 68 | 1015.6 |
| 20260505150920 | 9 | 292 | 8.0 | 9.7 | 0.00 | 0.00 | 0.00 | 68 | 1015.7 |
| 20260505140620 | 9 | 149 | 6.4 | 11.3 | 0.00 | 0.00 | 0.00 | 69 | 1015.3 |